Location: Go?cza
(50.3372°N, 19.9313°E)
Time: 23:39:52
(UTC+00:00)

CZ-2C R/B - Pass Details

Date: 14 August 2024
Orbit: 665 x 777 km, 98.4° (Epoch: 16 September)

Event Time Altitude Azimuth Distance (km) Brightness Sun altitude
Rises 02:02:54 0° 17° (NNE) 3,271 6.8 -12.3°
Reaches altitude 10° 02:05:17 10° 23° (NNE) 2,341 6.1 -12.0°
Maximum altitude 02:10:21 53° 100° (E) 952 3.3 -11.4°
Drops below altitude 10° 02:15:21 10° 177° (S) 2,308 4.6 -10.7°
Sets 02:17:42 0° 182° (S) 3,220 5.3 -10.5°
